DMSP 5D-2 F14 DEB, 62943

Orbit data source: Space-Track

DMSP 5D-2 F14 DEB, 62943 is space debris in SSO originally from a launch on Fri, 04 Apr 1997 UTC launched from the Air Force Western Test Range (AFWTR). Debris objects in space refer to the collection of defunct objects orbiting the Earth. Examples of debris include non-operational satellites, rocket bodies, and fragments generated from explosions, collisions, or faulty payload assembly.

Loading next visibility...
Identifier
62943, 1997-012P
Orbit
SSO
Country
Flag of USUS
Related business
Manufacturer
LMT/EW
Mission
Spacecraft
Bus & Motor
Unknown
Mass
Unknown
Launch date (UTC)
1997-04-04 (29 years ago)
Launch vehicle
Unknown
Launch site
Air Force Western Test Range (AFWTR)
Object type
Payload
Rocket body
Debris
Shape & HBR
Unknown shape, 0.3 m
Radar Cross Section
Medium (>0.1 m² and <1 m²)

Expand to show TLE details & history
Last TLE update: 9 hours ago

TLE from 9 hours ago
0 DMSP 5D-2 F14 DEB
1 62943U 97012P   26171.45545391  .00050604  00000-0  11442-1 0  9994
2 62943  98.9590 230.7537 0050823 177.0705 183.0798 14.55141891509546
Epoch: 2026-06-20T10:55Z
TLE epoch observation values (Epoch: 2026-06-20T10:55:51.217Z)
Latitude
0.00002°
Longitude
158.12046°
Altitude
747.833 km
Speed
7.462 km/s
True Right ascension
15h 23m 00s
True Declination
0° 00' 00"
Sunlit
Object was in full shadow at epoch
Visualization orbit readout
Latitude
Unknown
Longitude
Unknown
Altitude
Unknown
Speed
Unknown
Apparent Right ascension
Unknown
Apparent Declination
Unknown
Sunlit
N/A
Visualization observer readout
Local Sidereal Time
07:17:16
Azimuth
Unknown
Elevation
Unknown
Doppler factor
Unknown
Orbital elements
Apogee altitude
742.032 km
Perigee altitude
670.024 km
Semi-major axis
7,084.165 km
Eccentricity
0.00508
Inclination
98.959°
RAAN
230.7537°
Arg. of periapsis
177.0705°
True anomaly
183.04871°
Mean anomaly
183.0798°
Eccentric anomaly
183.06423°
Mean motion
3.64007 °/min
Orbital period
98.9 mins
BSTAR
0.011442
Loading maneuver chart data...
Computing Atmospheric mass density...

Documentation

Showing up to 5 results
|